Total_Precipitation_Accumulation
0.52 0.68 0.78 0.76 0.78 0.82 0.86 0.82 0.74 0.65 0.60 0.61 0.63 0.65 0.66 0.60 0.53 0.54 0.50 0.48 0.47 0.42 0.40 0.41 0.40 0.40 0.47 0.49 0.51 0.48 0.43 0.46 0.47 0.15 0.06 0.07 0.15 0.23 0.23 0.17 0.17 0.15 0.13
0.43 0.56 0.67 0.73 0.76 0.82 0.81 0.85 0.86 0.78 0.62 0.53 0.55 0.59 0.63 0.62 0.57 0.55 0.52 0.49 0.49 0.47 0.45 0.45 0.46 0.46 0.51 0.55 0.62 0.61 0.52 0.46 0.51 0.35 0.14 0.11 0.18 0.27 0.30 0.24 0.20 0.17 0.12
0.41 0.50 0.60 0.69 0.72 0.74 0.72 0.76 0.88 0.93 0.83 0.64 0.56 0.58 0.64 0.69 0.64 0.57 0.56 0.54 0.51 0.48 0.48 0.51 0.54 0.56 0.53 0.55 0.66 0.71 0.64 0.56 0.56 0.53 0.30 0.16 0.18 0.28 0.38 0.34 0.28 0.25 0.19
0.40 0.47 0.53 0.62 0.65 0.65 0.66 0.65 0.73 0.85 0.89 0.77 0.65 0.60 0.66 0.77 0.76 0.74 0.73 0.64 0.57 0.47 0.42 0.44 0.54 0.67 0.71 0.74 0.77 0.76 0.77 0.78 0.72 0.66 0.48 0.31 0.26 0.31 0.46 0.50 0.42 0.36 0.30
0.40 0.45 0.44 0.51 0.61 0.62 0.60 0.62 0.66 0.72 0.77 0.75 0.71 0.65 0.66 0.85 1.05 1.18 1.07 0.78 0.60 0.49 0.39 0.37 0.48 0.71 0.90 1.07 1.12 1.01 1.01 1.08 1.00 0.92 0.78 0.60 0.45 0.46 0.54 0.56 0.62 0.51 0.45
0.39 0.43 0.43 0.48 0.57 0.61 0.57 0.60 0.66 0.68 0.72 0.70 0.66 0.66 0.64 0.83 1.15 1.33 1.00 0.64 0.51 0.47 0.43 0.38 0.45 0.67 0.83 0.93 1.05 1.05 1.10 1.24 1.30 1.22 1.07 0.87 0.62 0.52 0.55 0.66 0.79 0.84 0.71
0.39 0.40 0.46 0.48 0.52 0.59 0.60 0.61 0.65 0.68 0.69 0.67 0.62 0.59 0.56 0.64 0.98 1.19 0.90 0.58 0.46 0.43 0.43 0.40 0.43 0.54 0.67 0.72 0.76 0.77 0.82 0.98 1.20 1.32 1.26 0.95 0.76 0.62 0.72 0.84 0.84 0.93 0.83
0.42 0.39 0.43 0.47 0.48 0.57 0.62 0.61 0.65 0.67 0.64 0.62 0.60 0.57 0.51 0.53 0.84 1.10 0.90 0.59 0.49 0.45 0.45 0.41 0.37 0.42 0.55 0.70 0.76 0.70 0.64 0.73 0.98 1.20 1.37 1.17 0.97 0.94 1.09 1.24 1.26 1.21 1.03
0.43 0.39 0.39 0.44 0.45 0.51 0.57 0.61 0.62 0.66 0.63 0.59 0.55 0.56 0.50 0.45 0.69 1.07 0.95 0.61 0.51 0.46 0.47 0.44 0.37 0.36 0.52 0.68 0.67 0.61 0.54 0.60 0.72 0.95 1.09 1.10 1.09 1.20 1.41 1.71 1.79 1.69 1.42
0.40 0.34 0.36 0.39 0.38 0.43 0.47 0.53 0.58 0.60 0.60 0.57 0.52 0.51 0.47 0.40 0.53 0.96 1.05 0.65 0.52 0.47 0.47 0.45 0.48 0.49 0.58 0.63 0.57 0.58 0.66 0.60 0.56 0.59 0.62 0.64 0.70 0.81 1.13 1.54 1.77 1.80 1.58
0.36 0.32 0.35 0.37 0.36 0.39 0.42 0.44 0.52 0.57 0.56 0.56 0.53 0.49 0.45 0.42 0.47 0.72 1.02 0.78 0.59 0.49 0.49 0.48 0.42 0.54 0.58 0.57 0.58 0.59 0.74 0.68 0.58 0.63 0.62 0.56 0.54 0.62 0.79 1.08 1.49 1.78 1.79
0.32 0.32 0.34 0.36 0.36 0.38 0.40 0.38 0.42 0.52 0.54 0.54 0.55 0.54 0.48 0.43 0.47 0.64 0.82 0.80 0.68 0.51 0.48 0.42 0.38 0.50 0.54 0.58 0.57 0.61 0.66 0.64 0.59 0.56 0.52 0.49 0.51 0.58 0.69 0.86 1.10 1.39 1.56
0.29 0.29 0.32 0.34 0.36 0.38 0.38 0.36 0.39 0.47 0.52 0.53 0.54 0.53 0.48 0.43 0.49 0.67 0.66 0.65 0.66 0.57 0.57 0.58 0.52 0.56 0.58 0.51 0.48 0.53 0.53 0.48 0.54 0.56 0.50 0.44 0.48 0.57 0.63 0.70 0.79 1.00 1.20
0.27 0.25 0.27 0.32 0.37 0.42 0.38 0.34 0.35 0.40 0.51 0.52 0.52 0.49 0.46 0.45 0.57 0.68 0.58 0.53 0.59 0.64 0.66 0.64 0.63 0.61 0.55 0.47 0.43 0.40 0.36 0.39 0.48 0.53 0.49 0.44 0.42 0.46 0.55 0.66 0.76 0.87 1.07
0.26 0.24 0.26 0.29 0.38 0.45 0.42 0.36 0.34 0.33 0.47 0.56 0.51 0.49 0.51 0.59 0.68 0.74 0.64 0.58 0.60 0.67 0.72 0.71 0.64 0.58 0.56 0.49 0.39 0.31 0.28 0.32 0.38 0.40 0.44 0.46 0.45 0.46 0.48 0.57 0.76 0.88 1.03
0.26 0.25 0.26 0.29 0.35 0.41 0.43 0.43 0.47 0.43 0.45 0.46 0.45 0.48 0.47 0.58 0.63 0.61 0.62 0.62 0.67 0.72 0.76 0.73 0.56 0.45 0.44 0.41 0.36 0.31 0.27 0.27 0.28 0.34 0.41 0.44 0.47 0.50 0.52 0.53 0.67 0.85 0.97
0.26 0.26 0.29 0.31 0.34 0.38 0.40 0.41 0.48 0.53 0.54 0.49 0.45 0.45 0.49 0.53 0.54 0.53 0.56 0.60 0.65 0.67 0.64 0.53 0.43 0.37 0.35 0.33 0.32 0.31 0.29 0.25 0.27 0.33 0.37 0.39 0.42 0.47 0.51 0.54 0.59 0.73 0.85
0.26 0.30 0.33 0.32 0.34 0.39 0.40 0.40 0.42 0.45 0.48 0.48 0.49 0.47 0.48 0.51 0.53 0.53 0.56 0.64 0.67 0.57 0.46 0.42 0.40 0.36 0.35 0.37 0.36 0.35 0.32 0.30 0.30 0.30 0.31 0.32 0.37 0.44 0.48 0.49 0.55 0.68 0.77
0.29 0.31 0.34 0.33 0.34 0.38 0.40 0.40 0.41 0.42 0.41 0.41 0.45 0.51 0.54 0.55 0.58 0.59 0.57 0.54 0.50 0.44 0.38 0.37 0.37 0.39 0.39 0.39 0.36 0.35 0.34 0.30 0.27 0.27 0.27 0.26 0.29 0.36 0.41 0.42 0.49 0.56 0.67
0.34 0.39 0.40 0.36 0.37 0.41 0.44 0.45 0.44 0.45 0.44 0.42 0.43 0.46 0.58 0.64 0.64 0.63 0.57 0.48 0.44 0.39 0.35 0.37 0.37 0.39 0.41 0.41 0.38 0.35 0.34 0.30 0.27 0.26 0.25 0.24 0.25 0.30 0.35 0.38 0.43 0.50 0.56
0.39 0.42 0.46 0.42 0.40 0.45 0.49 0.50 0.49 0.50 0.50 0.45 0.41 0.44 0.62 0.66 0.57 0.48 0.47 0.44 0.42 0.40 0.39 0.41 0.40 0.39 0.40 0.39 0.38 0.35 0.32 0.28 0.26 0.26 0.25 0.24 0.24 0.27 0.28 0.34 0.40 0.45 0.51
0.42 0.45 0.46 0.46 0.45 0.48 0.52 0.53 0.53 0.54 0.53 0.49 0.45 0.46 0.54 0.49 0.46 0.45 0.43 0.41 0.40 0.40 0.41 0.46 0.45 0.41 0.41 0.42 0.40 0.38 0.33 0.27 0.24 0.25 0.25 0.24 0.23 0.23 0.25 0.29 0.34 0.39 0.46
0.47 0.51 0.54 0.53 0.49 0.54 0.57 0.56 0.55 0.56 0.55 0.50 0.48 0.47 0.48 0.47 0.46 0.46 0.46 0.43 0.42 0.42 0.42 0.44 0.45 0.41 0.39 0.39 0.38 0.39 0.36 0.28 0.24 0.27 0.30 0.27 0.23 0.21 0.22 0.25 0.27 0.34 0.41
0.56 0.58 0.60 0.61 0.57 0.55 0.57 0.60 0.58 0.57 0.56 0.53 0.51 0.50 0.48 0.48 0.47 0.45 0.45 0.45 0.45 0.43 0.43 0.44 0.43 0.40 0.38 0.38 0.34 0.32 0.30 0.29 0.33 0.35 0.32 0.32 0.27 0.23 0.23 0.25 0.25 0.28 0.35
0.63 0.62 0.64 0.67 0.66 0.62 0.61 0.62 0.60 0.59 0.57 0.54 0.53 0.52 0.50 0.48 0.47 0.44 0.44 0.45 0.46 0.45 0.41 0.41 0.43 0.42 0.40 0.37 0.33 0.30 0.30 0.34 0.42 0.50 0.51 0.45 0.33 0.26 0.26 0.27 0.26 0.27 0.31
0.64 0.64 0.66 0.67 0.66 0.63 0.63 0.64 0.62 0.62 0.61 0.56 0.52 0.53 0.53 0.51 0.48 0.46 0.45 0.47 0.49 0.47 0.43 0.41 0.41 0.41 0.40 0.39 0.35 0.34 0.37 0.39 0.42 0.46 0.53 0.55 0.42 0.30 0.27 0.29 0.27 0.28 0.32